contact:dominique.lefevre@mio.osupytheas.fr, maurice.libes@osupytheas.fr, didier.mallarino@osupytheas.fr
Project:EMSO http://www.emso-fr.org/EMSO-France
Depth: 2436.0 m
Title:EMSO Ligure Ouest : Data MII capteur MICROCAT
DateTime_Computer,Latitude,Longitude,Temperature,Conductivity,Pressure,DateTime_Instrument
DateTime_Computer,Latitude,Longitude,degC,S m-1,dbar,DateTime_Instrument
2022-12-11T00:00:50Z,42.805,6.029,13.3019,4.60096,2470.534,2022-12-11T02:06:47Z
2022-12-11T00:03:53Z,42.805,6.029,13.3027,4.60103,2470.53,2022-12-11T02:09:50Z
2022-12-11T00:06:56Z,42.805,6.029,13.3028,4.60100,2470.544,2022-12-11T02:12:53Z
2022-12-11T00:09:59Z,42.805,6.029,13.3022,4.60096,2470.52,2022-12-11T02:15:56Z
2022-12-11T00:13:02Z,42.805,6.029,13.3027,4.60084,2470.53,2022-12-11T02:18:59Z
2022-12-11T00:16:05Z,42.805,6.029,13.3022,4.60100,2470.52,2022-12-11T02:22:02Z
2022-12-11T00:19:08Z,42.805,6.029,13.3019,4.60092,2470.507,2022-12-11T02:25:06Z
2022-12-11T00:22:11Z,42.805,6.029,13.3025,4.60112,2470.53,2022-12-11T02:28:09Z
2022-12-11T00:25:15Z,42.805,6.029,13.3021,4.60099,2470.507,2022-12-11T02:31:12Z
2022-12-11T00:28:18Z,42.805,6.029,13.3024,4.60079,2470.507,2022-12-11T02:34:15Z
2022-12-11T00:31:21Z,42.805,6.029,13.3034,4.60097,2470.507,2022-12-11T02:37:18Z
2022-12-11T00:34:24Z,42.805,6.029,13.3021,4.60097,2470.53,2022-12-11T02:40:21Z
2022-12-11T00:37:27Z,42.805,6.029,13.3020,4.60092,2470.483,2022-12-11T02:43:24Z
2022-12-11T00:40:30Z,42.805,6.029,13.3020,4.60099,2470.507,2022-12-11T02:46:27Z
2022-12-11T00:43:33Z,42.805,6.029,13.3017,4.60103,2470.507,2022-12-11T02:49:30Z
2022-12-11T00:46:36Z,42.805,6.029,13.3015,4.60087,2470.52,2022-12-11T02:52:33Z
2022-12-11T00:49:39Z,42.805,6.029,13.3030,4.60119,2470.474,2022-12-11T02:55:36Z
2022-12-11T00:52:42Z,42.805,6.029,13.3023,4.60105,2470.497,2022-12-11T02:58:39Z
2022-12-11T00:55:45Z,42.805,6.029,13.3021,4.60082,2470.507,2022-12-11T03:01:43Z
2022-12-11T00:58:48Z,42.805,6.029,13.3024,4.60094,2470.497,2022-12-11T03:04:46Z
2022-12-11T01:01:52Z,42.805,6.029,13.3019,4.60086,2470.507,2022-12-11T03:07:49Z
2022-12-11T01:04:55Z,42.805,6.029,13.3026,4.60088,2470.53,2022-12-11T03:10:52Z
2022-12-11T01:07:58Z,42.805,6.029,13.3021,4.60089,2470.544,2022-12-11T03:13:55Z
2022-12-11T01:11:01Z,42.805,6.029,13.3021,4.60103,2470.483,2022-12-11T03:16:58Z
2022-12-11T01:14:04Z,42.805,6.029,13.3028,4.60096,2470.52,2022-12-11T03:20:01Z
2022-12-11T01:17:07Z,42.805,6.029,13.3028,4.60086,2470.507,2022-12-11T03:23:04Z
2022-12-11T01:20:10Z,42.805,6.029,13.3016,4.60090,2470.507,2022-12-11T03:26:07Z
2022-12-11T01:23:13Z,42.805,6.029,13.3032,4.60101,2470.507,2022-12-11T03:29:10Z
2022-12-11T01:26:16Z,42.805,6.029,13.3019,4.60082,2470.483,2022-12-11T03:32:13Z
2022-12-11T01:29:19Z,42.805,6.029,13.3024,4.60099,2470.497,2022-12-11T03:35:17Z
2022-12-11T01:32:22Z,42.805,6.029,13.3023,4.60087,2470.52,2022-12-11T03:38:20Z
2022-12-11T01:35:25Z,42.805,6.029,13.3028,4.60093,2470.507,2022-12-11T03:41:23Z
2022-12-11T01:38:29Z,42.805,6.029,13.3026,4.60110,2470.46,2022-12-11T03:44:26Z
2022-12-11T01:41:32Z,42.805,6.029,13.3025,4.60113,2470.483,2022-12-11T03:47:29Z
2022-12-11T01:44:35Z,42.805,6.029,13.3024,4.60084,2470.52,2022-12-11T03:50:32Z
2022-12-11T01:47:38Z,42.805,6.029,13.3015,4.60092,2470.483,2022-12-11T03:53:35Z
2022-12-11T01:50:41Z,42.805,6.029,13.3018,4.60094,2470.507,2022-12-11T03:56:38Z
2022-12-11T01:53:44Z,42.805,6.029,13.3023,4.60105,2470.497,2022-12-11T03:59:41Z
2022-12-11T01:56:47Z,42.805,6.029,13.3030,4.60087,2470.497,2022-12-11T04:02:44Z
2022-12-11T01:59:50Z,42.805,6.029,13.3026,4.60084,2470.497,2022-12-11T04:05:47Z
2022-12-11T02:02:53Z,42.805,6.029,13.3016,4.60081,2470.483,2022-12-11T04:08:50Z
2022-12-11T02:05:56Z,42.805,6.029,13.3022,4.60123,2470.483,2022-12-11T04:11:54Z
2022-12-11T02:08:59Z,42.805,6.029,13.3015,4.60084,2470.497,2022-12-11T04:14:57Z
2022-12-11T02:12:02Z,42.805,6.029,13.3016,4.60084,2470.52,2022-12-11T04:18:00Z
2022-12-11T02:15:06Z,42.805,6.029,13.3021,4.60090,2470.497,2022-12-11T04:21:03Z
2022-12-11T02:18:09Z,42.805,6.029,13.3022,4.60092,2470.483,2022-12-11T04:24:06Z
2022-12-11T02:21:12Z,42.805,6.029,13.3025,4.60087,2470.507,2022-12-11T04:27:09Z
2022-12-11T02:24:15Z,42.805,6.029,13.3024,4.60084,2470.497,2022-12-11T04:30:12Z
2022-12-11T02:27:18Z,42.805,6.029,13.3023,4.60084,2470.46,2022-12-11T04:33:15Z
2022-12-11T02:30:21Z,42.805,6.029,13.3022,4.60095,2470.474,2022-12-11T04:36:18Z
2022-12-11T02:33:24Z,42.805,6.029,13.3021,4.60079,2470.497,2022-12-11T04:39:21Z
2022-12-11T02:36:27Z,42.805,6.029,13.3018,4.60077,2470.46,2022-12-11T04:42:24Z
2022-12-11T02:39:30Z,42.805,6.029,13.3027,4.60093,2470.52,2022-12-11T04:45:27Z
2022-12-11T02:42:33Z,42.805,6.029,13.3030,4.60089,2470.474,2022-12-11T04:48:31Z
2022-12-11T02:45:36Z,42.805,6.029,13.3019,4.60093,2470.497,2022-12-11T04:51:34Z
2022-12-11T02:48:39Z,42.805,6.029,13.3024,4.60091,2470.497,2022-12-11T04:54:37Z
2022-12-11T02:51:43Z,42.805,6.029,13.3028,4.60096,2470.483,2022-12-11T04:57:40Z
2022-12-11T02:54:46Z,42.805,6.029,13.3016,4.60086,2470.474,2022-12-11T05:00:43Z
2022-12-11T02:57:49Z,42.805,6.029,13.3013,4.60086,2470.493,2022-12-11T05:03:46Z
2022-12-11T03:00:52Z,42.805,6.029,13.3013,4.60070,2470.52,2022-12-11T05:06:49Z
2022-12-11T03:03:55Z,42.805,6.029,13.3015,4.60084,2470.46,2022-12-11T05:09:52Z
2022-12-11T03:06:58Z,42.805,6.029,13.3023,4.60087,2470.483,2022-12-11T05:12:55Z
2022-12-11T03:10:01Z,42.805,6.029,13.3014,4.60103,2470.46,2022-12-11T05:15:58Z
2022-12-11T03:13:04Z,42.805,6.029,13.3026,4.60102,2470.437,2022-12-11T05:19:01Z
2022-12-11T03:16:07Z,42.805,6.029,13.3021,4.60091,2470.483,2022-12-11T05:22:05Z
2022-12-11T03:19:10Z,42.805,6.029,13.3023,4.60085,2470.507,2022-12-11T05:25:08Z
2022-12-11T03:22:13Z,42.805,6.029,13.3030,4.60102,2470.483,2022-12-11T05:28:11Z
2022-12-11T03:25:17Z,42.805,6.029,13.3022,4.60109,2470.497,2022-12-11T05:31:14Z
2022-12-11T03:28:20Z,42.805,6.029,13.3018,4.60084,2470.483,2022-12-11T05:34:17Z
2022-12-11T03:31:23Z,42.805,6.029,13.3018,4.60081,2470.46,2022-12-11T05:37:20Z
2022-12-11T03:34:26Z,42.805,6.029,13.3018,4.60081,2470.483,2022-12-11T05:40:23Z
2022-12-11T03:37:29Z,42.805,6.029,13.3019,4.60081,2470.46,2022-12-11T05:43:26Z
2022-12-11T03:40:32Z,42.805,6.029,13.3014,4.60081,2470.46,2022-12-11T05:46:29Z
2022-12-11T03:43:35Z,42.805,6.029,13.3024,4.60094,2470.507,2022-12-11T05:49:32Z
2022-12-11T03:46:38Z,42.805,6.029,13.3021,4.60108,2470.497,2022-12-11T05:52:35Z
2022-12-11T03:49:41Z,42.805,6.029,13.3019,4.60123,2470.507,2022-12-11T05:55:39Z
2022-12-11T03:52:44Z,42.805,6.029,13.3019,4.60102,2470.483,2022-12-11T05:58:42Z
2022-12-11T03:55:47Z,42.805,6.029,13.3018,4.60090,2470.52,2022-12-11T06:01:45Z
2022-12-11T03:58:50Z,42.805,6.029,13.3015,4.60070,2470.483,2022-12-11T06:04:48Z
2022-12-11T04:01:54Z,42.805,6.029,13.3018,4.60104,2470.483,2022-12-11T06:07:51Z
2022-12-11T04:04:57Z,42.805,6.029,13.3028,4.60112,2470.53,2022-12-11T06:10:54Z
2022-12-11T04:08:00Z,42.805,6.029,13.3023,4.60085,2470.53,2022-12-11T06:13:57Z
2022-12-11T04:11:03Z,42.805,6.029,13.3022,4.60112,2470.544,2022-12-11T06:17:00Z
2022-12-11T04:14:06Z,42.805,6.029,13.3031,4.60114,2470.483,2022-12-11T06:20:03Z
2022-12-11T04:17:09Z,42.805,6.029,13.3025,4.60105,2470.52,2022-12-11T06:23:06Z
2022-12-11T04:20:12Z,42.805,6.029,13.3018,4.60097,2470.483,2022-12-11T06:26:09Z
2022-12-11T04:23:15Z,42.805,6.029,13.3021,4.60092,2470.483,2022-12-11T06:29:12Z
2022-12-11T04:26:18Z,42.805,6.029,13.3021,4.60104,2470.507,2022-12-11T06:32:16Z
2022-12-11T04:29:21Z,42.805,6.029,13.3022,4.60102,2470.507,2022-12-11T06:35:19Z
2022-12-11T04:32:24Z,42.805,6.029,13.3018,4.60071,2470.544,2022-12-11T06:38:22Z
2022-12-11T04:35:28Z,42.805,6.029,13.3021,4.60096,2470.52,2022-12-11T06:41:25Z
2022-12-11T04:38:31Z,42.805,6.029,13.3014,4.60087,2470.53,2022-12-11T06:44:28Z
2022-12-11T04:41:34Z,42.805,6.029,13.3020,4.60079,2470.544,2022-12-11T06:47:31Z
2022-12-11T04:44:37Z,42.805,6.029,13.3023,4.60086,2470.52,2022-12-11T06:50:34Z
2022-12-11T04:47:40Z,42.805,6.029,13.3024,4.60101,2470.53,2022-12-11T06:53:37Z
2022-12-11T04:50:43Z,42.805,6.029,13.3013,4.60092,2470.53,2022-12-11T06:56:40Z
2022-12-11T04:53:46Z,42.805,6.029,13.3015,4.60085,2470.507,2022-12-11T06:59:43Z
2022-12-11T04:56:49Z,42.805,6.029,13.3015,4.60078,2470.544,2022-12-11T07:02:46Z
2022-12-11T04:59:52Z,42.805,6.029,13.3021,4.60088,2470.553,2022-12-11T07:05:50Z
2022-12-11T05:02:55Z,42.805,6.029,13.3031,4.60115,2470.544,2022-12-11T07:08:53Z
2022-12-11T05:05:58Z,42.805,6.029,13.3021,4.60097,2470.52,2022-12-11T07:11:56Z
2022-12-11T05:09:01Z,42.805,6.029,13.3021,4.60108,2470.53,2022-12-11T07:14:59Z
2022-12-11T05:12:05Z,42.805,6.029,13.3019,4.60092,2470.567,2022-12-11T07:18:02Z
2022-12-11T05:15:08Z,42.805,6.029,13.3014,4.60093,2470.553,2022-12-11T07:21:05Z
2022-12-11T05:18:11Z,42.805,6.029,13.3019,4.60089,2470.53,2022-12-11T07:24:08Z
2022-12-11T05:21:14Z,42.805,6.029,13.3016,4.60092,2470.553,2022-12-11T07:27:11Z
2022-12-11T05:24:17Z,42.805,6.029,13.3019,4.60083,2470.577,2022-12-11T07:30:14Z
2022-12-11T05:27:20Z,42.805,6.029,13.3037,4.60103,2470.553,2022-12-11T07:33:17Z
2022-12-11T05:30:23Z,42.805,6.029,13.3019,4.60093,2470.516,2022-12-11T07:36:20Z
2022-12-11T05:33:26Z,42.805,6.029,13.3024,4.60099,2470.567,2022-12-11T07:39:23Z
2022-12-11T05:36:29Z,42.805,6.029,13.3013,4.60081,2470.553,2022-12-11T07:42:27Z
2022-12-11T05:39:32Z,42.805,6.029,13.3012,4.60089,2470.577,2022-12-11T07:45:30Z
2022-12-11T05:42:35Z,42.805,6.029,13.3016,4.60082,2470.567,2022-12-11T07:48:33Z
2022-12-11T05:45:38Z,42.805,6.029,13.3029,4.60075,2470.553,2022-12-11T07:51:36Z
2022-12-11T05:48:42Z,42.805,6.029,13.3026,4.60103,2470.591,2022-12-11T07:54:39Z
2022-12-11T05:51:45Z,42.805,6.029,13.3023,4.60082,2470.553,2022-12-11T07:57:42Z
2022-12-11T05:54:48Z,42.805,6.029,13.3022,4.60079,2470.577,2022-12-11T08:00:45Z
2022-12-11T05:57:51Z,42.805,6.029,13.3019,4.60096,2470.591,2022-12-11T08:03:48Z
2022-12-11T06:00:54Z,42.805,6.029,13.3021,4.60091,2470.567,2022-12-11T08:06:51Z
2022-12-11T06:03:57Z,42.805,6.029,13.3029,4.60099,2470.6,2022-12-11T08:09:54Z
2022-12-11T06:07:00Z,42.805,6.029,13.3035,4.60114,2470.6,2022-12-11T08:12:57Z
2022-12-11T06:10:03Z,42.805,6.029,13.3014,4.60085,2470.614,2022-12-11T08:16:01Z
2022-12-11T06:13:06Z,42.805,6.029,13.3018,4.60082,2470.6,2022-12-11T08:19:04Z
2022-12-11T06:16:09Z,42.805,6.029,13.3014,4.60087,2470.6,2022-12-11T08:22:07Z
2022-12-11T06:19:12Z,42.805,6.029,13.3018,4.60085,2470.637,2022-12-11T08:25:10Z
2022-12-11T06:22:15Z,42.805,6.029,13.3025,4.60102,2470.6,2022-12-11T08:28:13Z
2022-12-11T06:25:18Z,42.805,6.029,13.3015,4.60102,2470.614,2022-12-11T08:31:16Z
2022-12-11T06:28:22Z,42.805,6.029,13.3015,4.60092,2470.614,2022-12-11T08:34:19Z
2022-12-11T06:31:25Z,42.805,6.029,13.3015,4.60082,2470.637,2022-12-11T08:37:22Z
2022-12-11T06:34:28Z,42.805,6.029,13.3019,4.60072,2470.6,2022-12-11T08:40:25Z
2022-12-11T06:37:31Z,42.805,6.029,13.3018,4.60084,2470.624,2022-12-11T08:43:28Z
2022-12-11T06:40:34Z,42.805,6.029,13.3029,4.60114,2470.646,2022-12-11T08:46:31Z
2022-12-11T06:43:37Z,42.805,6.029,13.3040,4.60120,2470.624,2022-12-11T08:49:34Z
2022-12-11T06:46:40Z,42.805,6.029,13.3028,4.60085,2470.646,2022-12-11T08:52:38Z
2022-12-11T06:49:43Z,42.805,6.029,13.3019,4.60098,2470.637,2022-12-11T08:55:41Z
2022-12-11T06:52:46Z,42.805,6.029,13.3019,4.60097,2470.624,2022-12-11T08:58:44Z
2022-12-11T06:55:49Z,42.805,6.029,13.3024,4.60096,2470.61,2022-12-11T09:01:47Z
2022-12-11T06:58:52Z,42.805,6.029,13.3017,4.60097,2470.646,2022-12-11T09:04:50Z
2022-12-11T07:01:56Z,42.805,6.029,13.3015,4.60102,2470.656,2022-12-11T09:07:53Z
2022-12-11T07:04:59Z,42.805,6.029,13.3014,4.60084,2470.624,2022-12-11T09:10:56Z
2022-12-11T07:08:02Z,42.805,6.029,13.3019,4.60083,2470.624,2022-12-11T09:13:59Z
2022-12-11T07:11:05Z,42.805,6.029,13.3019,4.60085,2470.661,2022-12-11T09:17:02Z
2022-12-11T07:14:08Z,42.805,6.029,13.3016,4.60102,2470.646,2022-12-11T09:20:05Z
2022-12-11T07:17:11Z,42.805,6.029,13.3017,4.60090,2470.646,2022-12-11T09:23:08Z
2022-12-11T07:20:14Z,42.805,6.029,13.3024,4.60092,2470.646,2022-12-11T09:26:11Z
2022-12-11T07:23:17Z,42.805,6.029,13.3019,4.60101,2470.646,2022-12-11T09:29:15Z
2022-12-11T07:26:20Z,42.805,6.029,13.3024,4.60095,2470.67,2022-12-11T09:32:18Z
2022-12-11T07:29:23Z,42.805,6.029,13.3015,4.60098,2470.684,2022-12-11T09:35:21Z
2022-12-11T07:32:26Z,42.805,6.029,13.3019,4.60087,2470.646,2022-12-11T09:38:24Z
2022-12-11T07:35:29Z,42.805,6.029,13.3019,4.60101,2470.661,2022-12-11T09:41:27Z
2022-12-11T07:38:33Z,42.805,6.029,13.3019,4.60100,2470.67,2022-12-11T09:44:30Z
2022-12-11T07:41:36Z,42.805,6.029,13.3021,4.60084,2470.684,2022-12-11T09:47:33Z
2022-12-11T07:44:39Z,42.805,6.029,13.3031,4.60126,2470.684,2022-12-11T09:50:36Z
2022-12-11T07:47:42Z,42.805,6.029,13.3015,4.60107,2470.67,2022-12-11T09:53:39Z
2022-12-11T07:50:45Z,42.805,6.029,13.3029,4.60102,2470.684,2022-12-11T09:56:42Z
2022-12-11T07:53:48Z,42.805,6.029,13.3021,4.60125,2470.67,2022-12-11T09:59:45Z
2022-12-11T07:56:51Z,42.805,6.029,13.3015,4.60096,2470.661,2022-12-11T10:02:49Z
2022-12-11T07:59:54Z,42.805,6.029,13.3019,4.60107,2470.707,2022-12-11T10:05:52Z
2022-12-11T08:02:57Z,42.805,6.029,13.3034,4.60112,2470.67,2022-12-11T10:08:55Z
2022-12-11T08:06:00Z,42.805,6.029,13.3036,4.60142,2470.67,2022-12-11T10:11:58Z
2022-12-11T08:09:03Z,42.805,6.029,13.3030,4.60153,2470.684,2022-12-11T10:15:01Z
2022-12-11T08:12:07Z,42.805,6.029,13.3028,4.60127,2470.717,2022-12-11T10:18:04Z
2022-12-11T08:15:10Z,42.805,6.029,13.3036,4.60111,2470.717,2022-12-11T10:21:07Z
2022-12-11T08:18:13Z,42.805,6.029,13.3034,4.60127,2470.717,2022-12-11T10:24:10Z
2022-12-11T08:21:16Z,42.805,6.029,13.3020,4.60095,2470.693,2022-12-11T10:27:13Z
2022-12-11T08:24:19Z,42.805,6.029,13.3020,4.60120,2470.707,2022-12-11T10:30:16Z
2022-12-11T08:27:22Z,42.805,6.029,13.3021,4.60105,2470.707,2022-12-11T10:33:19Z
2022-12-11T08:30:25Z,42.805,6.029,13.3020,4.60122,2470.707,2022-12-11T10:36:23Z
2022-12-11T08:33:28Z,42.805,6.029,13.3024,4.60117,2470.67,2022-12-11T10:39:26Z
2022-12-11T08:36:31Z,42.805,6.029,13.3029,4.60129,2470.707,2022-12-11T10:42:29Z
2022-12-11T08:39:34Z,42.805,6.029,13.3054,4.60130,2470.754,2022-12-11T10:45:32Z
2022-12-11T08:42:37Z,42.805,6.029,13.3037,4.60111,2470.717,2022-12-11T10:48:35Z
2022-12-11T08:45:40Z,42.805,6.029,13.3043,4.60122,2470.717,2022-12-11T10:51:38Z
2022-12-11T08:48:44Z,42.805,6.029,13.3030,4.60140,2470.717,2022-12-11T10:54:41Z
2022-12-11T08:51:47Z,42.805,6.029,13.3029,4.60138,2470.717,2022-12-11T10:57:44Z
2022-12-11T08:54:50Z,42.805,6.029,13.3024,4.60092,2470.693,2022-12-11T11:00:47Z
2022-12-11T08:57:53Z,42.805,6.029,13.3024,4.60094,2470.693,2022-12-11T11:03:50Z
2022-12-11T09:00:56Z,42.805,6.029,13.3038,4.60130,2470.693,2022-12-11T11:06:53Z
2022-12-11T09:03:59Z,42.805,6.029,13.3020,4.60101,2470.73,2022-12-11T11:09:57Z
2022-12-11T09:07:02Z,42.805,6.029,13.3022,4.60079,2470.717,2022-12-11T11:13:00Z
2022-12-11T09:10:05Z,42.805,6.029,13.3035,4.60118,2470.693,2022-12-11T11:16:03Z
2022-12-11T09:13:08Z,42.805,6.029,13.3034,4.60127,2470.73,2022-12-11T11:19:06Z
2022-12-11T09:16:11Z,42.805,6.029,13.3031,4.60130,2470.693,2022-12-11T11:22:09Z
2022-12-11T09:19:14Z,42.805,6.029,13.3024,4.60128,2470.679,2022-12-11T11:25:12Z
2022-12-11T09:22:18Z,42.805,6.029,13.3020,4.60119,2470.717,2022-12-11T11:28:15Z
2022-12-11T09:25:21Z,42.805,6.029,13.3026,4.60118,2470.73,2022-12-11T11:31:18Z
2022-12-11T09:28:24Z,42.805,6.029,13.3022,4.60116,2470.73,2022-12-11T11:34:21Z
2022-12-11T09:31:27Z,42.805,6.029,13.3024,4.60106,2470.74,2022-12-11T11:37:24Z
2022-12-11T09:34:30Z,42.805,6.029,13.3017,4.60109,2470.74,2022-12-11T11:40:27Z
2022-12-11T09:37:33Z,42.805,6.029,13.3019,4.60097,2470.73,2022-12-11T11:43:31Z
2022-12-11T09:40:36Z,42.805,6.029,13.3020,4.60093,2470.707,2022-12-11T11:46:34Z
2022-12-11T09:43:39Z,42.805,6.029,13.3019,4.60103,2470.74,2022-12-11T11:49:37Z
2022-12-11T09:46:42Z,42.805,6.029,13.3021,4.60107,2470.717,2022-12-11T11:52:40Z
2022-12-11T09:49:45Z,42.805,6.029,13.3023,4.60099,2470.717,2022-12-11T11:55:43Z
2022-12-11T09:52:48Z,42.805,6.029,13.3030,4.60114,2470.717,2022-12-11T11:58:46Z
2022-12-11T09:55:52Z,42.805,6.029,13.3017,4.60111,2470.707,2022-12-11T12:01:49Z
2022-12-11T09:58:55Z,42.805,6.029,13.3030,4.60119,2470.73,2022-12-11T12:04:52Z
2022-12-11T10:01:58Z,42.805,6.029,13.3030,4.60099,2470.717,2022-12-11T12:07:55Z
2022-12-11T10:05:01Z,42.805,6.029,13.3029,4.60122,2470.707,2022-12-11T12:10:58Z
2022-12-11T10:08:04Z,42.805,6.029,13.3046,4.60126,2470.717,2022-12-11T12:14:01Z
2022-12-11T10:11:07Z,42.805,6.029,13.3023,4.60120,2470.73,2022-12-11T12:17:05Z
2022-12-11T10:14:10Z,42.805,6.029,13.3027,4.60129,2470.693,2022-12-11T12:20:08Z
2022-12-11T10:17:13Z,42.805,6.029,13.3031,4.60121,2470.717,2022-12-11T12:23:11Z
2022-12-11T10:20:16Z,42.805,6.029,13.3035,4.60139,2470.717,2022-12-11T12:26:14Z
2022-12-11T10:23:19Z,42.805,6.029,13.3033,4.60097,2470.717,2022-12-11T12:29:17Z
2022-12-11T10:26:22Z,42.805,6.029,13.3023,4.60122,2470.693,2022-12-11T12:32:20Z
2022-12-11T10:29:26Z,42.805,6.029,13.3020,4.60117,2470.707,2022-12-11T12:35:23Z
2022-12-11T10:32:29Z,42.805,6.029,13.3021,4.60114,2470.707,2022-12-11T12:38:26Z
2022-12-11T10:35:32Z,42.805,6.029,13.3036,4.60124,2470.73,2022-12-11T12:41:29Z
2022-12-11T10:38:35Z,42.805,6.029,13.3021,4.60128,2470.684,2022-12-11T12:44:32Z
2022-12-11T10:41:38Z,42.805,6.029,13.3023,4.60120,2470.693,2022-12-11T12:47:36Z
2022-12-11T10:44:41Z,42.805,6.029,13.3036,4.60132,2470.67,2022-12-11T12:50:39Z
2022-12-11T10:47:44Z,42.805,6.029,13.3022,4.60129,2470.73,2022-12-11T12:53:42Z
2022-12-11T10:50:47Z,42.805,6.029,13.3027,4.60134,2470.707,2022-12-11T12:56:45Z
2022-12-11T10:53:50Z,42.805,6.029,13.3033,4.60143,2470.693,2022-12-11T12:59:48Z
2022-12-11T10:56:53Z,42.805,6.029,13.3033,4.60143,2470.707,2022-12-11T13:02:51Z
2022-12-11T10:59:56Z,42.805,6.029,13.3023,4.60127,2470.707,2022-12-11T13:05:54Z
2022-12-11T11:03:00Z,42.805,6.029,13.3036,4.60111,2470.707,2022-12-11T13:08:57Z
2022-12-11T11:06:03Z,42.805,6.029,13.3027,4.60145,2470.67,2022-12-11T13:12:00Z
2022-12-11T11:09:06Z,42.805,6.029,13.3024,4.60127,2470.707,2022-12-11T13:15:03Z
2022-12-11T11:12:09Z,42.805,6.029,13.3042,4.60129,2470.693,2022-12-11T13:18:06Z
2022-12-11T11:15:12Z,42.805,6.029,13.3031,4.60143,2470.693,2022-12-11T13:21:09Z
2022-12-11T11:18:15Z,42.805,6.029,13.3026,4.60135,2470.717,2022-12-11T13:24:13Z
2022-12-11T11:21:18Z,42.805,6.029,13.3021,4.60114,2470.684,2022-12-11T13:27:16Z
2022-12-11T11:24:21Z,42.805,6.029,13.3031,4.60123,2470.646,2022-12-11T13:30:19Z
2022-12-11T11:27:24Z,42.805,6.029,13.3032,4.60110,2470.707,2022-12-11T13:33:22Z
2022-12-11T11:30:27Z,42.805,6.029,13.3036,4.60122,2470.67,2022-12-11T13:36:25Z
2022-12-11T11:33:30Z,42.805,6.029,13.3037,4.60140,2470.67,2022-12-11T13:39:28Z
2022-12-11T11:36:33Z,42.805,6.029,13.3022,4.60114,2470.73,2022-12-11T13:42:31Z
2022-12-11T11:39:37Z,42.805,6.029,13.3024,4.60125,2470.684,2022-12-11T13:45:34Z
2022-12-11T11:42:40Z,42.805,6.029,13.3025,4.60123,2470.646,2022-12-11T13:48:37Z
2022-12-11T11:45:43Z,42.805,6.029,13.3030,4.60125,2470.67,2022-12-11T13:51:40Z
2022-12-11T11:48:46Z,42.805,6.029,13.3029,4.60130,2470.67,2022-12-11T13:54:44Z
2022-12-11T11:51:49Z,42.805,6.029,13.3044,4.60132,2470.661,2022-12-11T13:57:47Z
2022-12-11T11:54:52Z,42.805,6.029,13.3039,4.60132,2470.67,2022-12-11T14:00:50Z
2022-12-11T11:57:55Z,42.805,6.029,13.3026,4.60160,2470.661,2022-12-11T14:03:53Z
2022-12-11T12:00:58Z,42.805,6.029,13.3030,4.60140,2470.684,2022-12-11T14:06:56Z
2022-12-11T12:04:01Z,42.805,6.029,13.3032,4.60128,2470.684,2022-12-11T14:09:59Z
2022-12-11T12:07:04Z,42.805,6.029,13.3031,4.60145,2470.646,2022-12-11T14:13:02Z
2022-12-11T12:10:07Z,42.805,6.029,13.3029,4.60122,2470.661,2022-12-11T14:16:05Z
2022-12-11T12:13:11Z,42.805,6.029,13.3030,4.60131,2470.646,2022-12-11T14:19:08Z
2022-12-11T12:16:14Z,42.805,6.029,13.3034,4.60117,2470.624,2022-12-11T14:22:11Z
2022-12-11T12:19:17Z,42.805,6.029,13.3025,4.60131,2470.661,2022-12-11T14:25:14Z
2022-12-11T12:22:20Z,42.805,6.029,13.3038,4.60137,2470.624,2022-12-11T14:28:17Z
2022-12-11T12:25:23Z,42.805,6.029,13.3034,4.60127,2470.684,2022-12-11T14:31:21Z
2022-12-11T12:28:26Z,42.805,6.029,13.3031,4.60122,2470.646,2022-12-11T14:34:24Z
2022-12-11T12:31:29Z,42.805,6.029,13.3043,4.60114,2470.656,2022-12-11T14:37:27Z
2022-12-11T12:34:32Z,42.805,6.029,13.3036,4.60120,2470.684,2022-12-11T14:40:30Z
2022-12-11T12:37:35Z,42.805,6.029,13.3027,4.60133,2470.646,2022-12-11T14:43:33Z
2022-12-11T12:40:38Z,42.805,6.029,13.3031,4.60141,2470.633,2022-12-11T14:46:36Z
2022-12-11T12:43:41Z,42.805,6.029,13.3025,4.60114,2470.624,2022-12-11T14:49:39Z
2022-12-11T12:46:45Z,42.805,6.029,13.3031,4.60121,2470.646,2022-12-11T14:52:42Z
2022-12-11T12:49:48Z,42.805,6.029,13.3025,4.60128,2470.624,2022-12-11T14:55:45Z
2022-12-11T12:52:51Z,42.805,6.029,13.3036,4.60127,2470.661,2022-12-11T14:58:48Z
2022-12-11T12:55:54Z,42.805,6.029,13.3026,4.60103,2470.6,2022-12-11T15:01:51Z
2022-12-11T12:58:57Z,42.805,6.029,13.3026,4.60098,2470.624,2022-12-11T15:04:55Z
2022-12-11T13:02:00Z,42.805,6.029,13.3035,4.60141,2470.624,2022-12-11T15:07:58Z
2022-12-11T13:05:03Z,42.805,6.029,13.3021,4.60124,2470.646,2022-12-11T15:11:01Z
2022-12-11T13:08:06Z,42.805,6.029,13.3032,4.60147,2470.6,2022-12-11T15:14:04Z
2022-12-11T13:11:09Z,42.805,6.029,13.3041,4.60148,2470.624,2022-12-11T15:17:07Z
2022-12-11T13:14:12Z,42.805,6.029,13.3024,4.60113,2470.577,2022-12-11T15:20:10Z
2022-12-11T13:17:15Z,42.805,6.029,13.3038,4.60129,2470.661,2022-12-11T15:23:13Z
2022-12-11T13:20:18Z,42.805,6.029,13.3028,4.60119,2470.624,2022-12-11T15:26:16Z
2022-12-11T13:23:22Z,42.805,6.029,13.3040,4.60110,2470.624,2022-12-11T15:29:19Z
2022-12-11T13:26:25Z,42.805,6.029,13.3043,4.60164,2470.661,2022-12-11T15:32:22Z
2022-12-11T13:29:28Z,42.805,6.029,13.3029,4.60116,2470.661,2022-12-11T15:35:25Z
2022-12-11T13:32:31Z,42.805,6.029,13.3022,4.60101,2470.637,2022-12-11T15:38:29Z
2022-12-11T13:35:34Z,42.805,6.029,13.3019,4.60126,2470.646,2022-12-11T15:41:32Z
2022-12-11T13:38:37Z,42.805,6.029,13.3035,4.60157,2470.577,2022-12-11T15:44:35Z
2022-12-11T13:41:40Z,42.805,6.029,13.3022,4.60125,2470.6,2022-12-11T15:47:38Z
2022-12-11T13:44:43Z,42.805,6.029,13.3022,4.60128,2470.624,2022-12-11T15:50:41Z
2022-12-11T13:47:46Z,42.805,6.029,13.3017,4.60108,2470.6,2022-12-11T15:53:44Z
2022-12-11T13:50:49Z,42.805,6.029,13.3019,4.60123,2470.614,2022-12-11T15:56:47Z
2022-12-11T13:53:52Z,42.805,6.029,13.3031,4.60157,2470.6,2022-12-11T15:59:50Z
2022-12-11T13:56:56Z,42.805,6.029,13.3018,4.60125,2470.6,2022-12-11T16:02:53Z
2022-12-11T13:59:59Z,42.805,6.029,13.3025,4.60125,2470.614,2022-12-11T16:05:56Z
2022-12-11T14:03:02Z,42.805,6.029,13.3021,4.60122,2470.577,2022-12-11T16:08:59Z
2022-12-11T14:06:05Z,42.805,6.029,13.3019,4.60117,2470.6,2022-12-11T16:12:03Z
2022-12-11T14:09:08Z,42.805,6.029,13.3022,4.60116,2470.646,2022-12-11T16:15:06Z
2022-12-11T14:12:11Z,42.805,6.029,13.3022,4.60094,2470.6,2022-12-11T16:18:09Z
2022-12-11T14:15:14Z,42.805,6.029,13.3026,4.60095,2470.624,2022-12-11T16:21:12Z
2022-12-11T14:18:17Z,42.805,6.029,13.3038,4.60137,2470.6,2022-12-11T16:24:15Z
2022-12-11T14:21:20Z,42.805,6.029,13.3033,4.60129,2470.614,2022-12-11T16:27:18Z
2022-12-11T14:24:23Z,42.805,6.029,13.3043,4.60148,2470.577,2022-12-11T16:30:21Z
2022-12-11T14:27:26Z,42.805,6.029,13.3034,4.60161,2470.6,2022-12-11T16:33:24Z
2022-12-11T14:30:30Z,42.805,6.029,13.3028,4.60146,2470.614,2022-12-11T16:36:27Z
2022-12-11T14:33:33Z,42.805,6.029,13.3042,4.60149,2470.614,2022-12-11T16:39:30Z
2022-12-11T14:36:36Z,42.805,6.029,13.3034,4.60104,2470.591,2022-12-11T16:42:33Z
2022-12-11T14:39:39Z,42.805,6.029,13.3033,4.60137,2470.591,2022-12-11T16:45:37Z
2022-12-11T14:42:42Z,42.805,6.029,13.3029,4.60136,2470.577,2022-12-11T16:48:40Z
2022-12-11T14:45:45Z,42.805,6.029,13.3044,4.60117,2470.6,2022-12-11T16:51:43Z
2022-12-11T14:48:48Z,42.805,6.029,13.3023,4.60144,2470.614,2022-12-11T16:54:46Z
2022-12-11T14:51:51Z,42.805,6.029,13.3034,4.60130,2470.614,2022-12-11T16:57:49Z
2022-12-11T14:54:54Z,42.805,6.029,13.3024,4.60119,2470.577,2022-12-11T17:00:52Z
2022-12-11T14:57:57Z,42.805,6.029,13.3029,4.60116,2470.6,2022-12-11T17:03:55Z
2022-12-11T15:01:00Z,42.805,6.029,13.3038,4.60114,2470.614,2022-12-11T17:06:58Z